Location: ????
(55.5675°N, 37.6272°E)
Time: 02:30:27
(UTC+00:00)

Cosmos 1624 Rocket - Pass Details

Date: 14 April 2026
Orbit: 753 x 778 km, 74.0° (Epoch: 20 May)

Event Time Altitude Azimuth Distance (km) Brightness Sun altitude
Exits shadow 21:47:05 44° 113° (ESE) 1,037 4.5 -24.7°
Maximum altitude 21:47:14 45° 108° (ESE) 1,035 4.5 -24.7°
Drops below altitude 10° 21:52:09 10° 37° (NE) 2,292 7.2 -24.6°
Sets 21:54:35 0° 31° (NNE) 3,220 8.3 -24.6°
